Weather in Novy Urgal

Russia / Khabarovsk Krai     51°04′19″N   132°35′46″E
temp.,
°C
wind,
m/s
gust,
m/s
humid.,
%
clouds,
%
prec.,
mm/h
press.,
hPa
HPBL,
m
27 february, sat
sat2701:00−23ne019660 0.0 103520
04:00−24ne1110069 0.0 103420
07:00−24n12100100 0.0 103320
10:00−21ne2294100 0.1 1030179
13:00−16nne1181100 0.0 1025277
16:00−13n2283100 0.1 1019235
19:00−12se1384100 0.0 101788
22:00−13sse3695100 0.9 1015247
28 february, sun
sun2801:00−13s2596100 0.9 1014181
04:00−14ssw2495100 1.0 101488
07:00−17sw239482 0.0 101725
10:00−15w487344 0.0 1019632
13:00−13w576450 0.0 10221219
16:00−14w576256 0.0 10231246
19:00−20wnw367969 0.0 1026119
22:00−24sw228638 0.0 102920
1 march, mon
mon101:00−25wsw33880 0.0 103036
04:00−27w128910 0.0 103319
07:00−28wsw22900 0.0 103421
10:00−24wsw23800 0.0 1034233
13:00−18wnw48540 0.0 10331475
16:00−17wnw585616 0.0 10311674
19:00−23wnw337855 0.0 103326
22:00−26wsw228636 0.0 103519
2 march, tue
tue201:00−28sw12890 0.0 103519
04:00−30wsw11920 0.0 103519
07:00−31sw11920 0.0 103619
10:00−27ne11840 0.0 1035162
13:00−23e01758 0.0 1032403
16:00−19sse237341 0.0 1030498
19:00−22se1183100 0.0 103020
22:00−25nne018880 0.0 103220
3 march, wed
wed301:00−25nne129289 0.0 103034
04:00−25n229894 0.1 102856
07:00−24n2299100 0.1 102645
10:00−21n1193100 0.3 1023176
13:00−17sw1283100 0.1 1018331
16:00−12ssw3779100 0.3 1015795
19:00−14sse4684100 0.1 1013137
22:00−17s3590100 0.1 1013138